Total_Precipitation_Accumulation
0.06 0.05 0.04 0.04 0.03 0.02 0.02 0.01 0.01 0.02 0.02 0.02 0.02 0.01 0.02 0.02 0.02 0.01 0.01 0.01 0.01 0.01 0.01 0.00 0.01 0.01 0.00 0.00 0.00 0.00 0.00 0.00 0.00 0.00 0.00 0.00 0.02 0.26 0.27 0.35 0.27 0.49 0.64 0.89 1.07 0.35 0.36
0.06 0.05 0.04 0.04 0.03 0.02 0.01 0.01 0.02 0.02 0.02 0.03 0.02 0.02 0.01 0.02 0.02 0.02 0.02 0.02 0.01 0.01 0.01 0.01 0.02 0.01 0.00 0.00 0.00 0.00 0.00 0.00 0.00 0.00 0.00 0.00 0.02 0.13 0.18 0.22 0.29 0.35 0.53 0.98 1.41 1.03 0.72
0.06 0.05 0.04 0.04 0.02 0.01 0.01 0.01 0.01 0.01 0.02 0.02 0.02 0.02 0.02 0.02 0.01 0.01 0.01 0.01 0.01 0.01 0.01 0.03 0.03 0.01 0.00 0.00 0.00 0.00 0.00 0.00 0.00 0.00 0.00 0.00 0.00 0.02 0.06 0.13 0.32 0.31 0.54 0.96 1.31 1.72 1.67
0.05 0.04 0.04 0.04 0.02 0.01 0.01 0.01 0.01 0.02 0.02 0.02 0.02 0.02 0.02 0.02 0.01 0.01 0.00 0.00 0.00 0.00 0.01 0.01 0.02 0.00 0.00 0.00 0.00 0.00 0.00 0.00 0.00 0.00 0.00 0.00 0.00 0.01 0.01 0.06 0.22 0.44 0.54 0.94 1.23 1.82 2.17
0.07 0.05 0.04 0.03 0.02 0.01 0.01 0.01 0.01 0.02 0.02 0.03 0.02 0.02 0.02 0.02 0.01 0.01 0.00 0.00 0.00 0.00 0.00 0.00 0.00 0.00 0.00 0.00 0.00 0.00 0.00 0.00 0.00 0.00 0.00 0.00 0.00 0.00 0.00 0.03 0.30 0.63 0.72 0.90 2.47 2.63 2.72
0.07 0.05 0.04 0.03 0.02 0.02 0.02 0.01 0.01 0.01 0.02 0.02 0.02 0.02 0.02 0.02 0.01 0.01 0.00 0.00 0.00 0.00 0.00 0.00 0.00 0.00 0.00 0.00 0.00 0.00 0.00 0.00 0.00 0.00 0.00 0.00 0.00 0.00 0.00 0.01 0.30 0.42 0.81 0.86 1.54 3.02 2.93
0.07 0.05 0.04 0.03 0.02 0.02 0.02 0.01 0.01 0.00 0.02 0.02 0.02 0.02 0.02 0.02 0.01 0.01 0.00 0.00 0.00 0.00 0.00 0.00 0.00 0.00 0.00 0.00 0.00 0.00 0.00 0.00 0.00 0.00 0.00 0.00 0.00 0.00 0.01 0.00 0.06 0.39 0.71 1.25 1.36 2.17 3.33
0.07 0.05 0.04 0.03 0.02 0.03 0.02 0.01 0.01 0.01 0.01 0.01 0.02 0.02 0.02 0.02 0.01 0.01 0.00 0.00 0.00 0.00 0.00 0.00 0.00 0.00 0.00 0.00 0.00 0.00 0.00 0.00 0.00 0.00 0.00 0.00 0.00 0.00 0.00 0.00 0.01 0.11 0.37 1.38 1.60 1.99 1.92
0.06 0.04 0.04 0.03 0.03 0.03 0.02 0.01 0.01 0.01 0.01 0.01 0.02 0.02 0.02 0.01 0.01 0.00 0.00 0.00 0.00 0.00 0.00 0.00 0.00 0.00 0.00 0.00 0.00 0.00 0.00 0.00 0.00 0.00 0.00 0.00 0.00 0.00 0.00 0.00 0.06 0.13 0.14 0.88 1.91 1.80 1.86
0.05 0.05 0.04 0.04 0.04 0.03 0.02 0.01 0.01 0.00 0.01 0.01 0.01 0.01 0.02 0.00 0.00 0.00 0.00 0.00 0.00 0.00 0.00 0.00 0.00 0.00 0.00 0.00 0.00 0.00 0.00 0.00 0.00 0.00 0.00 0.00 0.00 0.00 0.00 0.00 0.03 0.16 0.16 0.40 1.15 1.40 1.42
0.04 0.04 0.04 0.04 0.04 0.02 0.02 0.01 0.01 0.01 0.00 0.01 0.01 0.01 0.02 0.01 0.00 0.00 0.00 0.00 0.00 0.00 0.00 0.00 0.00 0.00 0.00 0.00 0.00 0.00 0.00 0.00 0.00 0.00 0.00 0.00 0.00 0.00 0.00 0.00 0.02 0.04 0.06 0.22 0.62 0.94 0.90
0.04 0.04 0.03 0.04 0.04 0.02 0.01 0.01 0.01 0.01 0.01 0.01 0.01 0.01 0.02 0.00 0.00 0.00 0.00 0.00 0.00 0.00 0.00 0.00 0.00 0.00 0.00 0.00 0.00 0.00 0.00 0.00 0.00 0.00 0.00 0.00 0.00 0.00 0.00 0.00 0.01 0.02 0.05 0.05 0.25 0.90 0.56
0.04 0.03 0.03 0.03 0.03 0.02 0.01 0.01 0.00 0.01 0.01 0.01 0.00 0.00 0.01 0.00 0.00 0.00 0.00 0.00 0.01 0.04 0.01 0.00 0.00 0.00 0.00 0.00 0.00 0.00 0.00 0.00 0.00 0.00 0.00 0.00 0.00 0.00 0.00 0.02 0.04 0.01 0.02 0.13 0.19 0.46 0.43
0.05 0.03 0.03 0.04 0.03 0.02 0.01 0.01 0.01 0.00 0.00 0.00 0.00 0.00 0.00 0.00 0.00 0.00 0.00 0.01 0.12 0.07 0.00 0.00 0.00 0.00 0.00 0.00 0.00 0.00 0.00 0.00 0.00 0.00 0.00 0.00 0.00 0.00 0.00 0.00 0.01 0.01 0.01 0.02 0.05 0.11 0.21
0.04 0.05 0.05 0.04 0.02 0.01 0.01 0.01 0.00 0.00 0.00 0.00 0.00 0.00 0.00 0.00 0.00 0.00 0.00 0.06 0.08 0.06 0.00 0.00 0.00 0.00 0.00 0.00 0.00 0.00 0.00 0.00 0.00 0.00 0.00 0.00 0.00 0.00 0.00 0.00 0.00 0.02 0.01 0.03 0.02 0.04 0.08
0.04 0.05 0.04 0.03 0.02 0.01 0.01 0.01 0.00 0.00 0.00 0.00 0.00 0.00 0.00 0.00 0.00 0.00 0.00 0.01 0.00 0.00 0.00 0.00 0.00 0.00 0.01 0.00 0.00 0.00 0.00 0.00 0.00 0.01 0.00 0.00 0.00 0.00 0.00 0.00 0.00 0.00 0.03 0.02 0.02 0.03 0.06
0.03 0.03 0.03 0.04 0.02 0.02 0.02 0.02 0.01 0.00 0.00 0.00 0.00 0.00 0.00 0.00 0.00 0.01 0.02 0.01 0.00 0.00 0.00 0.00 0.01 0.01 0.01 0.01 0.00 0.01 0.00 0.01 0.01 0.04 0.01 0.00 0.01 0.00 0.00 0.00 0.00 0.00 0.01 0.02 0.01 0.01 0.01
0.04 0.03 0.04 0.04 0.03 0.03 0.03 0.04 0.02 0.01 0.00 0.00 0.00 0.00 0.00 0.00 0.00 0.01 0.02 0.00 0.00 0.00 0.00 0.00 0.00 0.00 0.02 0.03 0.02 0.03 0.07 0.09 0.03 0.03 0.04 0.03 0.05 0.01 0.00 0.00 0.00 0.00 0.00 0.00 0.00 0.00 0.00
0.04 0.03 0.05 0.04 0.05 0.05 0.04 0.04 0.03 0.02 0.03 0.00 0.00 0.00 0.00 0.00 0.00 0.01 0.00 0.00 0.00 0.00 0.01 0.02 0.02 0.01 0.04 0.07 0.12 0.15 0.13 0.06 0.06 0.04 0.09 0.11 0.09 0.03 0.00 0.00 0.00 0.00 0.00 0.00 0.00 0.00 0.00
0.06 0.05 0.06 0.06 0.05 0.05 0.06 0.06 0.08 0.04 0.03 0.03 0.03 0.00 0.00 0.00 0.00 0.01 0.01 0.01 0.00 0.02 0.04 0.04 0.05 0.01 0.00 0.03 0.07 0.20 0.19 0.08 0.05 0.04 0.16 0.26 0.11 0.03 0.01 0.01 0.00 0.00 0.00 0.00 0.00 0.00 0.00
0.05 0.05 0.07 0.07 0.06 0.07 0.09 0.11 0.18 0.13 0.03 0.06 0.08 0.02 0.00 0.01 0.00 0.04 0.09 0.05 0.06 0.04 0.04 0.07 0.29 0.17 0.06 0.08 0.06 0.19 0.24 0.08 0.09 0.10 0.18 0.18 0.08 0.01 0.00 0.01 0.01 0.00 0.00 0.00 0.00 0.00 0.00
0.05 0.05 0.06 0.07 0.08 0.09 0.11 0.15 0.25 0.22 0.03 0.10 0.13 0.13 0.11 0.02 0.01 0.03 0.06 0.11 0.10 0.05 0.06 0.08 0.26 0.21 0.22 0.25 0.13 0.17 0.16 0.25 0.19 0.13 0.16 0.09 0.07 0.04 0.01 0.00 0.00 0.00 0.00 0.00 0.00 0.00 0.00
0.04 0.06 0.07 0.09 0.11 0.12 0.14 0.21 0.29 0.36 0.11 0.19 0.18 0.21 0.37 0.16 0.06 0.10 0.08 0.14 0.14 0.24 0.24 0.21 0.40 0.39 0.18 0.15 0.08 0.04 0.03 0.07 0.10 0.12 0.17 0.16 0.20 0.18 0.05 0.02 0.02 0.06 0.01 0.00 0.01 0.01 0.01
0.06 0.06 0.08 0.09 0.12 0.13 0.16 0.23 0.32 0.55 0.36 0.42 0.41 0.61 0.68 0.28 0.14 0.14 0.11 0.15 0.15 0.22 0.38 0.11 0.24 0.36 0.12 0.03 0.03 0.02 0.02 0.03 0.06 0.04 0.05 0.13 0.39 0.40 0.28 0.16 0.27 0.10 0.05 0.03 0.03 0.05 0.02
0.04 0.05 0.07 0.10 0.12 0.13 0.18 0.22 0.29 0.56 0.68 0.61 0.65 0.99 1.03 0.51 0.13 0.08 0.11 0.17 0.12 0.14 0.13 0.16 0.13 0.10 0.03 0.04 0.14 0.10 0.08 0.12 0.04 0.02 0.02 0.08 0.33 0.47 0.42 0.40 0.31 0.16 0.09 0.04 0.03 0.08 0.11
0.05 0.07 0.08 0.09 0.11 0.15 0.19 0.23 0.29 0.49 0.75 0.80 0.74 1.11 1.26 0.81 0.22 0.22 0.23 0.15 0.21 0.26 0.13 0.06 0.04 0.02 0.04 0.20 0.40 0.47 0.71 0.73 0.46 0.19 0.07 0.20 0.32 0.67 0.54 0.79 0.67 0.32 0.13 0.06 0.06 0.22 0.13
0.06 0.07 0.09 0.11 0.13 0.14 0.15 0.19 0.21 0.38 0.73 0.86 0.72 1.17 1.46 0.79 0.14 0.22 0.33 0.38 0.39 0.52 0.36 0.13 0.07 0.07 0.18 0.54 0.64 0.90 1.35 1.52 1.25 0.64 0.34 0.42 0.59 0.61 0.51 0.78 0.70 0.32 0.21 0.28 0.34 0.16 0.11
0.07 0.07 0.09 0.10 0.12 0.14 0.16 0.17 0.23 0.37 0.59 0.85 0.59 0.97 1.08 0.60 0.10 0.09 0.20 0.44 0.44 0.44 0.44 0.40 0.49 0.37 0.38 0.83 0.87 1.14 1.27 1.14 1.06 1.04 0.72 0.78 1.01 1.09 0.67 1.08 1.05 0.31 0.48 0.58 0.37 0.16 0.07
0.08 0.07 0.08 0.12 0.14 0.16 0.16 0.20 0.24 0.24 0.33 0.75 0.47 0.56 0.83 0.85 0.17 0.08 0.11 0.22 0.24 0.26 0.36 0.30 0.46 0.49 0.58 0.89 1.27 1.09 1.04 0.79 0.72 0.81 0.66 0.93 1.00 1.17 0.83 1.17 1.01 0.66 0.79 0.63 0.42 0.47 0.23